Weather History for KABI - November, 2013

Change the Weather History Date:

Friday, November 29, 2013

  Actual Average Record
Temperature  
Mean Temperature 46 °F 49 °F  
Max Temperature 61 °F 61 °F 83 °F (1927)
Min Temperature 30 °F 37 °F 14 °F (1911)
Degree Days  
Heating Degree Days 19 16  
Month to date heating degree days 384 313  
Since 1 July heating degree days 463 417  
Cooling Degree Days 0 0  
Month to date cooling degree days 13 15  
Year to date cooling degree days 2722 2404  
Moisture  
Dew Point 33 °F    
Average Humidity 59    
Maximum Humidity 78    
Minimum Humidity 40    
Precipitation  
Precipitation 0.00 in 0.04 in 0.74 in (1930)
Month to date precipitation 1.17 1.38  
Year to date precipitation 22.08 23.56  
Sea Level Pressure  
Sea Level Pressure 30.35 in    
Wind  
Wind Speed 10 mph (South)    
Max Wind Speed 20 mph    
Max Gust Speed 26 mph    
Visibility 10 miles    
Events      
T = Trace of Precipitation, MM = Missing Value Source: NWS Daily Summary

Daily Weather History Graph

Daily Weather History Graph

Search for Another Location

Airport or City:

Trip Planner

Search our weather history database for the weather conditions in past years. The results will help you decide how hot, cold, wet, or windy it might be!

Date:

Astronomy

Nov. 29, 2013 Rise Set
Actual Time 7:20 AM CST 5:33 PM CST
Civil Twilight 6:54 AM CST 6:00 PM CST
Nautical Twilight 6:23 AM CST 6:30 PM CST
Astronomical Twilight 5:54 AM CST 6:59 PM CST
Moon 3:39 AM CST (11/29) 3:09 PM CST (11/29)
Length of Visible Light 11h 05m
Length of Day
10h 12m
Waning Crescent, 14% of the Moon is Illuminated
Nov 29
Waning Crescent
Dec 2
New
Dec 9
First Quarter
Dec 17
Full
Dec 25
Last Quarter

Hourly Weather History & Observations

Time (CST) Temp. Windchill Dew Point Humidity Pressure Visibility Wind Dir Wind Speed Gust Speed Precip Events Conditions
12:52 AM 37.0 °F 31.6 °F 27.0 °F 67% 30.38 in 10.0 mi SSE 6.9 mph - N/A   Clear
1:52 AM 34.0 °F 28.0 °F 26.1 °F 73% 30.38 in 10.0 mi SSE 6.9 mph - N/A   Clear
2:52 AM 34.0 °F 28.0 °F 26.1 °F 73% 30.38 in 10.0 mi SSE 6.9 mph - N/A   Clear
3:52 AM 33.1 °F 25.5 °F 26.1 °F 75% 30.38 in 10.0 mi SSE 9.2 mph - N/A   Clear
4:52 AM 30.9 °F 22.8 °F 25.0 °F 79% 30.39 in 10.0 mi SSE 9.2 mph - N/A   Clear
5:52 AM 30.0 °F 22.4 °F 25.0 °F 82% 30.41 in 10.0 mi SE 8.1 mph - N/A   Clear
6:52 AM 30.0 °F 23.2 °F 24.1 °F 79% 30.43 in 10.0 mi SE 6.9 mph - N/A   Clear
7:52 AM 32.0 °F 25.6 °F 26.1 °F 79% 30.44 in 10.0 mi SSE 6.9 mph - N/A   Clear
8:52 AM 39.0 °F 35.7 °F 28.0 °F 65% 30.44 in 10.0 mi SSE 4.6 mph - N/A   Clear
9:52 AM 46.9 °F - 28.0 °F 48% 30.45 in 10.0 mi South 6.9 mph - N/A   Clear
10:52 AM 51.1 °F - 32.0 °F 48% 30.43 in 10.0 mi SSW 15.0 mph - N/A   Clear
11:52 AM 54.0 °F - 34.0 °F 47% 30.41 in 10.0 mi SSW 15.0 mph - N/A   Clear
12:52 PM 57.0 °F - 33.1 °F 40% 30.35 in 10.0 mi South 15.0 mph - N/A   Clear
1:52 PM 57.9 °F - 33.1 °F 39% 30.32 in 10.0 mi SSW 17.3 mph - N/A   Clear
2:52 PM 59.0 °F - 35.1 °F 41% 30.30 in 10.0 mi South 10.4 mph 19.6 mph N/A   Clear
3:52 PM 60.1 °F - 37.0 °F 42% 30.29 in 10.0 mi South 15.0 mph - N/A   Clear
4:52 PM 57.9 °F - 37.0 °F 46% 30.28 in 10.0 mi South 10.4 mph - N/A   Clear
5:52 PM 53.1 °F - 37.0 °F 55% 30.29 in 10.0 mi South 6.9 mph - N/A   Clear
6:52 PM 50.0 °F - 37.0 °F 61% 30.29 in 10.0 mi SSE 9.2 mph - N/A   Clear
7:52 PM 50.0 °F - 37.9 °F 63% 30.28 in 10.0 mi SSE 11.5 mph - N/A   Clear
8:52 PM 48.9 °F - 39.0 °F 69% 30.28 in 10.0 mi SSE 11.5 mph - N/A   Clear
9:52 PM 48.9 °F - 41.0 °F 74% 30.27 in 10.0 mi SSE 9.2 mph - N/A   Clear
10:52 PM 51.1 °F - 41.0 °F 68% 30.27 in 10.0 mi South 12.7 mph - N/A   Clear
11:52 PM 50.0 °F - 42.1 °F 74% 30.27 in 10.0 mi South 11.5 mph 21.9 mph N/A   Clear